[[{"header":{"parameterUnit":"m.s-1","parameterCategory":1,"la1":30.2991,"la2":30.254,"lo1":-89.0895,"lo2":-89.0444,"dy":0.0017,"dx":0.0017,"nx":28,"ny":28,"refTime":"2024-05-28T03:00:00:Z","depth":0,"parameterNumber":2,"parameterNumberName":"U-component_of_WINDS"},"data":[0,0,0,0,0,0,0,0,0,0,0,0,0,0,0,0,0,0,0,0,0,0,0,0,0,0,0,0,0,0,0,0,0,0,0,0,0,0,0,0,0,0,0,0,0,0,0,0,0,0,0,0,0,0,0,0,0,0,0.1296,0.1294,0,0.1092,0.1089,0.1087,0.0992,0.0992,0.0992,0.0992,0.0782,0.0777,0.0771,0,0,0,0,0,0,0,0,0,0,0,0,0,0.1602,0.1597,0.1296,0.1294,0.1291,0.1092,0.1089,0.1087,0.0992,0.0992,0.0992,0.0992,0.0784,0.0777,0.077,0,0,0,0,0,0,0,0,0,0,0,0,0,0.1441,0.1596,0.1297,0.122,0.1211,0.1093,0.1089,0.1086,0.0992,0.0992,0.0992,0.0992,0.0786,0.0778,0.0769,0.0712,0,0,0.0743,0.0739,0,0,0,0,0,0,0,0,0.145,0.143,0.1234,0.1225,0.1215,0.1068,0.112,0.096,0.0992,0.1075,0.0992,0.0993,0.0877,0.0861,0.0822,0.0702,0.0693,0.0742,0.0737,0.0734,0.0731,0,0,0,0,0,0,0,0.1462,0.1438,0.1215,0.1231,0.1219,0.1195,0.1172,0.109,0.0977,0.1068,0.106,0.1038,0.0872,0.0831,0.0816,0.069,0.0743,0.0735,0.073,0.0726,0.0511,0.0511,0,0,0,0,0,0,0.1486,0.1448,0.1222,0.1209,0.1336,0.1189,0.1164,0.1115,0.0978,0.0957,0.1038,0.1034,0.0845,0.0827,0.0809,0.0731,0.0734,0.0726,0.0721,0.0512,0.0511,0.0511,0,0,0,0,0,0,0.1492,0.1466,0.123,0.1326,0.1295,0.1184,0.1129,0.111,0.1069,0.0955,0.0934,0.1016,0.0845,0.0821,0.0736,0.0723,0.0722,0.0714,0.0513,0.0512,0.0511,0.0578,0,0,0,0,0,0,0.1502,0.1469,0.1447,0.1327,0.129,0.1162,0.1128,0.1106,0.1055,0.1048,0.0929,0.091,0.0843,0.075,0.0728,0.0711,0.0707,0.0513,0.0512,0.0511,0.0576,0.0579,0.0582,0,0,0,0,0,0.1513,0.1474,0.1446,0.1419,0.1259,0.1161,0.114,0.1064,0.1054,0.103,0.0957,0.0914,0.0728,0.0742,0.0717,0.0697,0.0514,0.0513,0.0511,0.0575,0.0579,0.0582,0,0,0,0,0,0,0.1595,0.1457,0.1425,0.1345,0.1266,0.1146,0.1113,0.1071,0.0992,0.0989,0.0897,0.0871,0.0795,0.0737,0.0756,0.0633,0.0617,0.0611,0.0674,0.0677,0.0679,0.0695,0.07,0,0,0,0,0,0.1604,0.1536,0.1419,0.136,0.1322,0.1225,0.1179,0.1127,0.1041,0.1007,0.0927,0.0845,0.0768,0.0719,0.0642,0.0567,0.054,0.0541,0.0544,0.0547,0.0542,0.0498,0.0497,0.0507,0.0507,0.0507,0,0,0.1621,0.1538,0.15,0.1375,0.1307,0.1239,0.1197,0.1127,0.1075,0.0996,0.0912,0.0851,0.0752,0.0673,0.0634,0.0622,0.0534,0.0545,0.0549,0.0542,0.0496,0.0496,0.0495,0.0506,0.0506,0.0506,0,0,0.1618,0.1549,0.1492,0.1425,0.1323,0.1258,0.1245,0.113,0.1087,0.1001,0.094,0.0877,0.0746,0.0678,0.0627,0.0598,0.0555,0.0575,0.059,0.0547,0.0547,0.0545,0.0534,0.0531,0.0571,0.0571,0.0571,0,0.1653,0.1548,0.1468,0.14,0.1346,0.1272,0.1214,0.1152,0.1031,0.0995,0.0984,0.0818,0.0747,0.065,0.0643,0.0604,0.0585,0.0588,0.0553,0.0551,0.0549,0.0537,0.0533,0.0574,0.0574,0.0574,0.0573,0,0.1595,0.1523,0.1489,0.1374,0.1316,0.1254,0.1163,0.1114,0.1067,0.1004,0.0917,0.0828,0.0732,0.0705,0.0658,0.0601,0.0597,0.0571,0.0552,0.0552,0.054,0.0535,0.0579,0.0578,0.0577,0.0576,0,0,0.1638,0.1479,0.1468,0.1414,0.1296,0.1238,0.1172,0.1077,0.1037,0.0955,0.0897,0.0788,0.0763,0.0704,0.0649,0.0612,0.0594,0.059,0.0586,0.0594,0.0524,0.0544,0.054,0.0565,0.0564,0.0563,0.0532,0,0.1618,0.1497,0.1422,0.133,0.1262,0.1191,0.1133,0.1054,0.0993,0.0925,0.0857,0.0781,0.0754,0.0718,0.0678,0.0605,0.0579,0.0606,0.0509,0.0507,0.0536,0.0534,0.0555,0.053,0.0527,0.0526,0.0525,0,0.1579,0.1499,0.1401,0.129,0.1258,0.1208,0.1115,0.1052,0.096,0.0918,0.0853,0.0798,0.0724,0.0712,0.0608,0.0629,0.0584,0.0542,0.0539,0.0527,0.0516,0.0521,0.052,0.0517,0.0517,0.0517,0.0518,0,0.162,0.1488,0.1411,0.1368,0.1236,0.1202,0.1146,0.1054,0.1002,0.0921,0.0886,0.0797,0.0748,0.068,0.0602,0.0601,0.0506,0.0488,0.0469,0.0471,0.0452,0.0454,0.0444,0.0425,0.0425,0.0425,0.0425,0,0.1605,0.1548,0.1428,0.1381,0.1314,0.1229,0.1165,0.1102,0.1021,0.0961,0.0893,0.0837,0.0738,0.0669,0.0608,0.0531,0.051,0.0473,0.0457,0.0478,0.0483,0.0448,0.0448,0.0424,0.0424,0.0424,0.0424,0,0.164,0.1557,0.1469,0.1352,0.1321,0.1277,0.1175,0.1127,0.1062,0.0986,0.0963,0.0861,0.0777,0.0692,0.0579,0.0537,0.0461,0.044,0.0493,0.0484,0.0469,0.0471,0.0435,0.0426,0.0415,0.0415,0.0415,0,0.1636,0.159,0.1467,0.1422,0.1367,0.1295,0.1241,0.1155,0.1102,0.0994,0.0958,0.0869,0.0793,0.0662,0.0577,0.049,0.0466,0.0459,0.0452,0.0475,0.0465,0.0468,0.0463,0.0462,0.0463,0.0463,0.0464,0,0.1637,0.1598,0.1524,0.1435,0.1373,0.1298,0.1221,0.1188,0.1087,0.103,0.0944,0.0885,0.0769,0.0681,0.0584,0.0525,0.0477,0.0466,0.0457,0.0478,0.051,0.0492,0.05,0.0468,0.0467,0.0467,0.0467,0.0466,0.1651,0.1607,0.1514,0.1433,0.1366,0.1295,0.1244,0.1172,0.1099,0.0998,0.0951,0.0864,0.0773,0.0637,0.0579,0.0509,0.0496,0.0483,0.0479,0.0477,0.0482,0.0522,0.0491,0.049,0.049,0.049,0.049,0,0.1649,0.1586,0.1512,0.1406,0.1343,0.1304,0.1216,0.1165,0.109,0.1008,0.0935,0.0835,0.0749,0.0658,0.0567,0.0528,0.0504,0.0507,0.0509,0.0496,0.0499,0.0516,0.0528,0.0528,0.0528,0.0528,0.0528,0.0528,0.164,0.1563,0.1513,0.1401,0.1337,0.1252,0.1205,0.114,0.1074,0.0966,0.0895,0.0835,0.075,0.0651,0.0571,0.0546,0.0515,0.0524,0.0494,0.0498,0.0496,0.0493,0.0508,0.0519,0.0519,0.0495,0.0495,0.0495]},{"header":{"parameterUnit":"m.s-1","parameterCategory":1,"la1":30.2991,"la2":30.254,"lo1":-89.0895,"lo2":-89.0444,"dy":0.0017,"dx":0.0017,"nx":28,"ny":28,"refTime":"2024-05-28T03:00:00:Z","depth":0,"parameterNumber":3,"parameterNumberName":"V-component_of_WINDS"},"data":[0,0,0,0,0,0,0,0,0,0,0,0,0,0,0,0,0,0,0,0,0,0,0,0,0,0,0,0,0,0,0,0,0,0,0,0,0,0,0,0,0,0,0,0,0,0,0,0,0,0,0,0,0,0,0,0,0,0,0.0392,0.0393,0,0.0461,0.0462,0.0463,0.0451,0.045,0.0448,0.0447,0.0523,0.0526,0.0529,0,0,0,0,0,0,0,0,0,0,0,0,0,0.0257,0.0259,0.0392,0.0393,0.0394,0.0461,0.0462,0.0463,0.0451,0.045,0.0448,0.0447,0.0522,0.0526,0.053,0,0,0,0,0,0,0,0,0,0,0,0,0,0.032,0.026,0.0392,0.0396,0.0397,0.0461,0.0462,0.0463,0.0451,0.045,0.0448,0.0446,0.0521,0.0525,0.053,0.0596,0,0,0.0545,0.0547,0,0,0,0,0,0,0,0,0.0316,0.0325,0.0395,0.0396,0.0397,0.0445,0.0442,0.0508,0.0452,0.0431,0.0447,0.0445,0.0499,0.0506,0.0523,0.0599,0.0602,0.0545,0.0548,0.055,0.0551,0,0,0,0,0,0,0,0.0312,0.0322,0.042,0.0396,0.0397,0.0396,0.0403,0.0454,0.0475,0.0433,0.0432,0.044,0.05,0.0518,0.0524,0.0604,0.0545,0.0549,0.0552,0.0554,0.0739,0.0741,0,0,0,0,0,0,0.0306,0.0318,0.0418,0.0422,0.0351,0.04,0.0408,0.0432,0.0474,0.0479,0.0441,0.0439,0.0511,0.0519,0.0527,0.0607,0.055,0.0554,0.0557,0.0737,0.0739,0.0742,0,0,0,0,0,0,0.0303,0.0315,0.0415,0.037,0.0382,0.0404,0.0431,0.0434,0.0453,0.048,0.0485,0.0456,0.051,0.052,0.0579,0.061,0.0556,0.0561,0.0734,0.0738,0.0741,0.0768,0,0,0,0,0,0,0.0299,0.0314,0.0337,0.037,0.0385,0.0464,0.0433,0.0437,0.046,0.0458,0.0496,0.05,0.0509,0.0572,0.0583,0.0615,0.0564,0.0732,0.0736,0.074,0.0765,0.0772,0.0778,0,0,0,0,0,0.0294,0.0343,0.0339,0.0351,0.0415,0.0465,0.0474,0.0482,0.0463,0.0488,0.0506,0.0499,0.0604,0.0578,0.0591,0.0625,0.073,0.0735,0.0739,0.0762,0.077,0.0778,0,0,0,0,0,0,0.0316,0.0348,0.0343,0.0404,0.0432,0.0463,0.0495,0.0491,0.0526,0.0523,0.0532,0.0541,0.06,0.0618,0.0588,0.0691,0.0665,0.0672,0.0677,0.0686,0.0692,0.0687,0.0568,0,0,0,0,0,0.0327,0.0363,0.039,0.0442,0.0456,0.0473,0.0495,0.0499,0.0529,0.0541,0.0564,0.0595,0.0635,0.0661,0.0699,0.0767,0.0776,0.0797,0.0803,0.0809,0.0816,0.0854,0.0864,0.0757,0.0757,0.0757,0,0,0.0352,0.0374,0.0397,0.0447,0.0469,0.0508,0.0483,0.0526,0.0556,0.0548,0.0604,0.0622,0.0657,0.0721,0.075,0.0738,0.0847,0.0815,0.0819,0.0823,0.086,0.087,0.0879,0.076,0.076,0.0759,0,0,0.0417,0.0437,0.0482,0.0504,0.0537,0.0548,0.0559,0.0592,0.0602,0.0658,0.0654,0.0691,0.0759,0.0785,0.0807,0.0882,0.0878,0.0894,0.093,0.0967,0.0976,0.0983,0.1012,0.1021,0.0901,0.0901,0.0901,0,0.0445,0.0502,0.0507,0.055,0.0573,0.0565,0.0613,0.0635,0.0679,0.0696,0.0681,0.0767,0.0791,0.0861,0.0879,0.0896,0.0911,0.0891,0.0974,0.0981,0.0989,0.1016,0.1026,0.0903,0.0903,0.0902,0.0902,0,0.0534,0.0574,0.0607,0.0649,0.0675,0.072,0.0734,0.076,0.0762,0.0775,0.0833,0.086,0.0905,0.0921,0.0924,0.0992,0.0983,0.0971,0.0945,0.1001,0.1026,0.1037,0.0906,0.0905,0.0904,0.0904,0,0,0.0616,0.0659,0.0671,0.069,0.0726,0.0758,0.0803,0.0845,0.0868,0.0899,0.0939,0.0997,0.0986,0.1011,0.1016,0.1048,0.1108,0.1032,0.1033,0.1046,0.1187,0.1197,0.1209,0.1105,0.1107,0.1108,0.1184,0,0.0686,0.0764,0.0769,0.0841,0.0879,0.0873,0.0912,0.094,0.0954,0.0989,0.1005,0.1047,0.1028,0.1043,0.1075,0.1094,0.1136,0.1088,0.1144,0.1146,0.1136,0.1222,0.1232,0.1303,0.1194,0.1196,0.1197,0,0.0778,0.081,0.0884,0.0915,0.0931,0.0967,0.1006,0.1039,0.1071,0.1079,0.1106,0.1107,0.1156,0.1127,0.1195,0.1163,0.1186,0.1199,0.1202,0.1208,0.1176,0.1232,0.1325,0.1337,0.1213,0.1212,0.121,0,0.0832,0.0893,0.0946,0.0962,0.0999,0.1025,0.1042,0.1071,0.1096,0.113,0.1147,0.1187,0.121,0.1242,0.1255,0.1232,0.1323,0.1295,0.1333,0.1333,0.1354,0.1353,0.1453,0.1366,0.1366,0.1366,0.1366,0,0.091,0.0956,0.0971,0.1003,0.1055,0.1062,0.1114,0.113,0.1157,0.1194,0.1191,0.1227,0.124,0.1278,0.1289,0.1345,0.1355,0.1364,0.1366,0.1365,0.1364,0.1381,0.1377,0.1369,0.1368,0.1368,0.1367,0,0.0979,0.099,0.1048,0.1077,0.1086,0.1123,0.115,0.1182,0.1195,0.1242,0.1254,0.1275,0.132,0.1335,0.139,0.1396,0.1462,0.146,0.1451,0.1452,0.149,0.1486,0.1606,0.1623,0.1523,0.1524,0.1525,0,0.1028,0.1064,0.1097,0.112,0.1138,0.1176,0.1201,0.1209,0.1236,0.1274,0.1303,0.1347,0.1382,0.1455,0.1476,0.1519,0.1518,0.1557,0.1525,0.1523,0.1521,0.1519,0.1524,0.1564,0.1565,0.1566,0.1567,0,0.1116,0.112,0.1154,0.1192,0.1221,0.1251,0.128,0.13,0.1313,0.1344,0.1388,0.1416,0.1471,0.1516,0.1559,0.1578,0.1576,0.1576,0.1588,0.1587,0.1581,0.1587,0.1469,0.1574,0.1573,0.1573,0.1572,0.1572,0.1178,0.1209,0.1237,0.1276,0.1299,0.1326,0.1358,0.1374,0.1411,0.1456,0.1459,0.1508,0.154,0.1597,0.1619,0.1659,0.1648,0.1664,0.1668,0.1673,0.1676,0.1574,0.1666,0.1666,0.1666,0.1666,0.1666,0,0.1267,0.1284,0.132,0.136,0.1391,0.1383,0.1415,0.1443,0.1485,0.1514,0.1548,0.1601,0.1644,0.1668,0.1712,0.174,0.174,0.1751,0.175,0.1755,0.1682,0.1669,0.175,0.175,0.175,0.175,0.175,0.175,0.1316,0.1369,0.1376,0.1441,0.1459,0.1505,0.1524,0.155,0.1573,0.1631,0.1666,0.1681,0.1709,0.1754,0.1794,0.1801,0.1818,0.1831,0.1836,0.1768,0.176,0.1752,0.1739,0.1834,0.1834,0.1906,0.1906,0.1907]}]]